Probability
0 0 0 0 0 1 2 2 2 1 0 0 0 0 0 1 0 0 0 0 1 1 1 0 0 0 1 2 2 1 1 1 1 0 1 4 6 6 6 6 6 6 6
0 0 0 0 0 0 1 1 1 0 0 0 0 0 1 1 1 0 0 0 0 0 0 0 0 0 0 1 1 0 1 1 1 1 1 3 4 5 6 6 6 6 6
0 0 0 0 0 0 0 0 0 0 0 0 0 0 1 2 2 1 0 0 0 0 0 0 0 0 0 0 0 0 0 1 1 1 2 3 3 4 4 5 6 6 6
0 0 0 0 0 0 0 0 0 0 0 0 0 0 1 3 2 1 0 0 0 0 0 0 0 0 0 0 0 0 0 0 0 1 2 3 3 3 3 4 5 6 6
0 0 0 0 0 0 0 0 0 0 0 0 0 0 2 3 2 1 0 0 0 0 0 0 0 0 0 0 0 0 0 0 0 1 2 3 3 3 3 3 4 6 6
0 0 0 0 0 0 0 0 0 0 0 0 0 1 1 3 3 2 1 0 0 0 1 0 0 0 0 0 0 0 0 0 0 0 1 2 3 3 3 3 4 6 6
0 0 0 0 0 0 0 0 0 0 0 0 1 2 2 3 3 2 1 0 0 0 0 0 0 0 0 0 0 0 1 0 0 0 0 1 3 3 3 3 4 6 6
0 0 0 0 0 0 0 0 0 0 0 1 2 3 3 3 3 3 2 1 0 0 0 0 0 0 0 0 0 0 0 0 0 0 0 1 4 4 4 4 5 6 7
0 0 0 0 0 0 0 0 0 0 0 1 3 3 3 3 3 3 2 1 0 0 0 0 0 0 0 0 0 0 0 0 0 0 0 2 5 6 6 6 6 7 7
0 0 0 0 0 0 0 0 0 0 0 1 2 2 2 2 2 2 2 1 0 0 0 1 1 0 0 0 0 0 0 0 0 0 0 2 5 6 6 6 6 7 7
0 0 0 0 0 0 0 0 0 0 0 1 1 1 1 1 0 1 1 1 1 0 0 1 1 1 0 0 0 0 0 0 0 0 1 2 4 5 6 6 6 6 6
0 0 0 0 0 0 0 0 0 0 0 0 0 0 0 0 0 0 1 2 2 1 0 1 1 1 0 0 0 0 0 0 0 0 1 2 3 4 4 5 6 6 6
0 0 0 0 0 0 0 0 0 0 0 0 0 0 0 0 0 0 1 2 2 1 0 0 0 0 0 0 0 0 0 0 0 0 0 1 2 3 3 4 4 4 4
0 0 0 0 0 0 0 0 1 1 1 1 0 0 0 0 0 0 0 1 1 0 0 0 0 0 0 0 0 0 0 0 0 0 0 0 1 2 2 3 3 3 3
0 0 0 0 0 0 1 1 2 2 2 2 1 1 0 0 0 0 0 0 0 0 0 0 0 0 0 0 0 0 0 0 0 0 0 0 0 1 2 3 3 3 2
0 0 0 0 0 1 2 3 3 3 3 3 3 2 1 0 0 0 0 0 0 0 0 0 0 0 0 0 0 0 0 0 0 0 0 0 0 1 2 2 2 1 1
0 0 0 0 0 1 2 2 3 3 3 3 3 3 2 1 1 0 0 0 0 0 0 0 0 0 0 0 0 0 0 0 0 0 0 0 0 0 1 1 1 0 0
1 0 0 0 0 0 1 1 1 3 3 3 3 3 3 3 2 1 1 0 0 0 0 0 0 0 0 0 0 0 0 0 0 0 0 0 0 0 0 0 0 0 0
2 1 0 1 1 1 1 1 1 3 3 3 3 3 2 3 3 2 1 0 0 0 0 0 0 0 0 0 0 0 0 0 0 0 0 0 0 0 0 0 0 0 0
3 2 1 2 2 2 2 2 3 3 3 3 3 2 1 1 2 1 1 0 0 0 0 0 0 0 0 0 0 0 0 0 0 0 0 0 0 0 0 0 0 0 0
3 3 2 2 3 2 2 2 2 2 3 3 3 2 1 0 0 0 0 0 0 0 0 0 0 0 0 0 0 0 0 0 0 0 0 0 0 0 0 0 0 0 0
3 3 3 3 2 1 1 1 1 1 1 2 3 3 2 1 0 0 0 0 0 0 0 0 0 0 0 0 0 0 0 0 0 0 0 0 0 0 0 0 0 0 0
3 3 3 3 3 2 1 0 0 0 0 1 1 2 2 1 0 0 0 0 0 0 0 0 0 0 0 0 0 0 0 0 0 0 0 0 0 0 0 0 0 0 0
3 3 3 3 3 3 1 0 0 0 0 0 0 1 1 0 0 0 0 0 0 0 0 0 0 0 0 0 0 0 0 0 0 0 0 0 0 0 0 0 0 0 0
3 3 3 3 3 3 2 0 0 0 0 0 0 0 0 0 0 0 0 0 0 0 0 0 0 0 0 0 0 0 0 0 0 0 0 0 0 0 0 0 0 0 0
3 3 3 3 3 3 1 0 0 0 0 0 0 0 0 0 0 0 0 0 0 0 0 0 0 0 0 0 0 0 0 0 0 0 0 0 0 0 0 0 0 0 0
Wind_Speed
3 3 3 4 6 6 8 8 9 10 10 10 10 10 10 10 10 10 10 10 10 10 10 10 9 9 9 9 8 8 9 8 8 7 7 6 6 6 5 6 5 3 5
1 2 2 4 5 7 7 8 9 9 10 10 10 10 10 10 10 10 10 11 11 10 10 9 9 9 9 9 9 8 8 9 8 8 7 5 5 5 5 5 4 3 5
1 2 2 4 5 7 7 8 9 10 10 9 9 10 10 10 10 10 10 10 11 11 10 9 9 8 9 9 9 9 8 9 9 8 7 3 3 6 6 5 5 5 5
1 2 2 4 6 7 8 8 9 9 9 9 8 9 10 10 10 10 10 10 10 10 10 10 9 9 9 10 10 10 9 9 9 8 4 3 2 5 6 5 6 6 6
2 2 2 5 7 7 8 8 8 8 8 8 8 9 9 10 10 10 10 10 10 10 9 10 10 10 9 10 10 10 10 10 10 7 4 4 3 5 5 6 7 6 6
2 2 2 5 6 7 8 8 8 8 9 8 8 9 9 9 10 10 10 10 10 10 10 10 9 9 9 9 10 10 10 10 9 5 4 3 2 5 6 7 7 7 8
2 2 2 5 6 7 8 8 8 8 8 9 9 9 9 9 9 10 10 10 10 10 10 10 10 9 9 9 9 9 10 10 6 4 3 2 3 7 8 9 8 8 9
3 3 3 5 6 7 7 8 8 8 7 8 8 8 8 9 9 10 10 10 10 10 10 10 11 11 11 11 11 11 11 11 7 5 4 3 6 9 10 10 9 9 9
3 4 3 3 4 6 7 7 8 8 8 8 8 8 8 8 9 9 10 9 9 9 10 10 11 11 11 12 12 12 13 13 7 5 6 4 8 10 11 10 10 10 10
3 4 3 3 4 4 4 7 8 9 9 9 9 8 8 8 8 9 8 9 9 9 10 11 11 11 12 12 12 12 13 10 7 6 4 6 11 11 12 11 11 10 11
2 3 3 3 3 3 3 5 6 7 8 8 7 9 7 4 4 5 7 9 10 10 10 10 11 11 12 12 12 12 10 5 5 4 4 9 11 12 12 12 12 11 11
1 1 2 2 2 3 3 3 3 3 4 4 4 4 3 3 3 5 6 9 9 10 9 10 11 11 9 5 8 9 4 6 5 4 5 10 11 11 12 12 12 12 11
1 1 1 1 2 2 2 2 2 2 3 3 4 4 3 3 3 3 3 4 5 6 5 6 7 5 5 4 4 4 5 5 4 4 5 10 10 11 11 11 12 12 12
1 1 0 1 2 2 2 2 2 2 2 2 2 3 2 2 2 2 2 3 3 3 3 3 3 4 5 5 5 5 6 4 4 3 5 11 10 10 10 10 11 11 11
1 1 0 1 1 2 2 1 2 2 2 2 2 2 2 2 2 2 2 2 2 2 3 3 3 4 4 5 5 5 5 6 6 5 4 10 11 10 10 10 10 10 11
1 1 1 1 1 2 1 1 1 1 1 2 2 2 2 2 2 2 2 2 2 2 2 2 3 3 3 3 4 5 5 5 5 6 5 7 11 11 11 10 10 10 10
1 1 1 2 2 2 1 1 1 1 2 2 2 2 2 2 2 2 2 2 2 2 2 2 3 3 3 3 4 4 4 4 5 5 5 4 5 9 11 10 10 10 10
1 1 0 1 2 2 1 1 1 2 2 2 2 2 2 2 2 2 2 2 2 2 2 2 2 3 3 2 2 3 3 3 4 4 4 5 4 4 7 10 9 9 9
1 1 1 1 1 1 1 2 2 2 2 2 2 2 2 2 2 2 2 2 2 2 2 2 2 2 2 2 2 3 3 3 3 4 5 5 4 4 4 6 9 9 8
1 1 2 1 1 1 1 2 2 2 2 2 2 2 3 2 3 3 2 3 3 3 3 2 2 3 2 2 2 3 3 3 3 4 4 4 4 4 5 5 4 6 9
2 2 1 1 1 2 1 1 1 1 1 2 2 2 2 2 2 3 2 2 2 2 2 2 2 3 3 2 2 3 3 3 3 3 3 3 4 4 4 4 3 3 4
1 1 1 1 1 1 1 1 1 1 0 1 1 2 2 2 2 2 2 2 2 2 3 3 3 2 1 2 2 2 2 3 3 3 3 3 3 3 4 4 3 4 3
1 1 1 1 1 1 1 2 2 2 2 2 2 1 2 1 2 2 2 2 2 2 2 1 2 2 1 1 1 2 2 1 2 3 2 3 3 3 3 2 3 3 3
1 1 1 1 1 1 2 2 2 2 1 1 1 0 1 1 1 1 1 2 1 1 1 1 2 1 2 1 1 1 1 2 1 2 3 2 2 2 2 2 3 2 2
0 0 1 1 1 1 2 2 3 1 1 0 0 1 1 1 1 0 1 1 1 1 1 1 1 1 1 1 1 0 1 1 1 2 1 3 3 2 2 2 2 2 2
1 1 1 2 1 1 2 2 2 3 2 1 0 0 0 1 1 0 1 1 1 1 1 1 1 1 1 1 1 1 1 1 1 1 1 2 2 3 2 2 2 2 2
Wind_Direction
297 297 339 36 43 50 54 55 58 62 65 68 70 70 68 68 71 71 69 69 71 71 69 66 64 67 66 64 66 69 71 72 74 78 85 86 85 83 81 85 91 106 101
273 312 13 52 53 54 55 57 59 63 65 66 70 70 70 68 69 70 69 67 67 67 65 64 64 64 64 64 65 69 72 72 71 71 70 69 78 82 82 88 96 97 105
360 350 21 54 61 61 61 62 62 65 66 66 68 70 69 68 69 70 70 68 66 64 62 61 64 63 65 63 62 68 72 72 69 64 56 37 60 82 83 84 92 95 100
71 18 38 56 64 66 65 67 68 68 69 67 70 72 71 69 68 69 69 68 67 64 61 59 60 63 65 63 61 64 65 64 65 59 39 27 36 80 87 92 93 94 94
61 29 29 59 64 65 67 71 71 69 72 71 74 75 75 73 70 68 67 66 64 62 59 58 57 61 63 64 65 63 61 59 57 47 32 24 19 72 91 97 95 98 99
59 33 33 59 63 63 67 70 72 68 69 70 75 75 73 71 69 70 67 65 63 62 61 60 59 62 63 65 65 63 60 58 50 38 31 24 20 63 81 95 95 96 94
57 32 39 64 65 64 65 67 69 68 68 70 74 76 74 70 66 67 65 63 63 61 60 58 58 61 64 61 61 61 61 57 47 34 19 22 48 71 83 92 92 92 89
66 39 36 56 65 63 62 62 62 63 66 69 72 72 71 68 65 63 60 61 60 60 60 60 59 61 63 61 61 59 57 52 44 28 18 38 69 75 81 88 88 88 86
60 48 37 32 42 51 55 54 55 56 59 67 70 70 67 65 63 62 55 56 59 62 63 64 63 64 65 63 61 59 56 50 38 24 33 44 70 74 75 81 82 83 83
50 41 38 34 36 36 36 45 50 52 57 63 63 64 62 55 52 53 52 51 55 60 63 64 64 64 62 61 58 57 53 45 33 28 25 50 64 70 71 76 80 79 79
46 27 34 40 34 35 42 43 42 45 48 53 52 54 53 39 35 38 43 51 54 57 59 62 64 65 61 59 58 56 50 36 32 29 29 57 64 69 73 75 77 76 75
46 15 32 43 44 48 50 45 33 38 39 44 45 47 48 42 36 42 36 48 51 54 56 58 63 61 55 46 50 49 39 34 34 26 39 57 64 67 71 72 73 74 73
154 80 45 46 50 62 51 51 39 30 31 32 35 39 46 46 36 37 32 31 35 43 42 46 51 46 47 45 42 40 37 38 30 23 39 54 63 67 69 70 70 71 71
122 138 86 80 63 60 62 57 50 38 30 27 28 37 47 47 39 37 41 28 32 35 40 44 50 47 48 47 47 44 39 39 32 23 33 47 60 69 71 71 71 70 69
159 188 198 95 90 82 73 59 63 42 31 23 27 38 56 60 47 43 41 38 33 38 46 50 54 50 47 44 47 50 43 38 33 30 24 42 54 64 69 73 71 70 69
196 200 192 116 117 108 97 78 62 51 39 36 32 38 58 68 61 54 48 40 32 35 45 59 65 60 49 49 46 43 41 38 35 33 28 33 44 52 60 66 69 67 66
188 183 182 149 104 102 101 96 77 58 59 44 27 38 56 66 66 64 59 39 25 40 56 59 55 58 57 51 43 40 40 38 35 34 31 28 28 39 49 58 63 63 63
139 132 106 127 117 113 102 89 66 60 61 45 33 39 47 53 62 66 58 36 24 42 56 66 58 59 50 46 40 33 34 35 34 34 36 32 29 27 34 45 52 55 58
156 140 122 88 105 132 114 86 70 58 53 40 39 38 39 50 59 67 57 37 39 50 51 67 59 70 65 42 45 39 29 29 25 37 37 32 30 29 24 31 41 45 47
116 118 120 95 85 72 78 70 58 47 39 40 44 37 44 46 52 62 57 38 44 54 43 54 68 55 67 49 54 41 26 23 28 32 31 30 29 32 32 30 27 29 34
72 80 107 100 74 87 79 87 86 45 18 22 30 39 46 50 52 65 59 51 47 59 56 60 70 65 45 40 58 31 14 21 32 25 23 29 25 23 29 29 24 21 15
127 122 112 139 125 142 147 141 130 118 77 62 15 26 34 56 64 71 75 72 58 61 56 54 65 70 47 46 81 76 16 354 358 13 17 25 15 11 19 21 19 20 14
128 180 166 166 145 143 122 87 65 57 40 26 15 9 10 41 63 64 72 81 71 81 88 67 75 83 93 17 59 113 121 246 314 332 0 13 1 3 359 357 11 10 8
221 205 155 125 114 116 118 121 120 127 138 237 249 292 358 34 51 66 86 93 90 82 93 91 84 84 109 85 11 46 120 153 143 316 329 347 349 350 342 348 351 349 352
174 122 138 111 96 100 126 146 142 139 176 191 57 59 19 5 20 56 105 102 96 95 101 93 79 72 98 117 102 76 64 56 98 148 287 317 332 319 317 317 323 328 331
36 52 89 96 83 94 124 139 153 159 155 119 31 42 335 326 326 324 142 131 139 126 127 137 123 108 99 96 83 90 127 142 185 152 205 282 301 302 307 299 297 305 312